"Period start","avg(HW err(1)/warn(2) (#))","avg(Visibility (m))","avg(Weather code (#))","avg(Precip intensity (mm/h))","min(HW err(1)/warn(2) (#))","max(HW err(1)/warn(2) (#))","std(HW err(1)/warn(2) (#))","med(HW err(1)/warn(2) (#))","min(Visibility (m))","max(Visibility (m))","std(Visibility (m))","med(Visibility (m))","min(Weather code (#))","max(Weather code (#))","std(Weather code (#))","med(Weather code (#))","min(Precip intensity (mm/h))","max(Precip intensity (mm/h))","std(Precip intensity (mm/h))","med(Precip intensity (mm/h))"
2017-05-11 00:00:00,2,31042,0,0.00,2,2,0,2,14377,50000,10070,31180,0,0,0,0,0.00,0.00,0.00,0.00
2017-05-11 00:10:00,2,33772,0,0.00,2,2,0,2,21142,50000,8892,31268,0,0,0,0,0.00,0.00,0.00,0.00
2017-05-11 00:20:00,2,21504,21,0.00,2,2,0,2,8747,31805,6757,21681,0,71,33,0,0.00,0.00,0.00,0.00
2017-05-11 00:30:00,2,22371,37,0.01,2,2,0,2,4057,41327,13323,24407,0,77,37,36,0.00,0.05,0.02,0.00
2017-05-11 00:40:00,2,4709,36,0.56,2,2,0,2,1118,7641,2318,5893,0,71,36,36,0.00,2.85,0.91,0.00
2017-05-11 00:50:00,2,8603,71,0.32,2,2,0,2,2859,19119,5164,6928,71,71,0,71,0.00,0.85,0.27,0.20
2017-05-11 01:00:00,2,18689,57,0.11,2,2,0,2,7755,47635,12042,13337,0,71,28,71,0.00,0.35,0.14,0.00
2017-05-11 01:10:00,2,26248,0,0.00,2,2,0,2,15062,41094,9836,22390,0,0,0,0,0.00,0.00,0.00,0.00
2017-05-11 01:20:00,2,26300,0,0.00,2,2,0,2,10359,38040,8131,24114,0,0,0,0,0.00,0.00,0.00,0.00
2017-05-11 01:30:00,2,31121,0,0.00,2,2,0,2,14924,45261,9793,33754,0,0,0,0,0.00,0.00,0.00,0.00
2017-05-11 01:40:00,2,26804,0,0.00,2,2,0,2,15421,36085,5763,26968,0,0,0,0,0.00,0.00,0.00,0.00
2017-05-11 01:50:00,2,34865,0,0.00,2,2,0,2,17792,49321,11361,35244,0,0,0,0,0.00,0.00,0.00,0.00
2017-05-11 02:00:00,2,35696,0,0.00,2,2,0,2,14824,47443,9844,37847,0,0,0,0,0.00,0.00,0.00,0.00
2017-05-11 02:10:00,2,30386,0,0.00,2,2,0,2,7092,49774,13675,31728,0,0,0,0,0.00,0.00,0.00,0.00
2017-05-11 02:20:00,2,28951,0,0.00,2,2,0,2,13184,39532,7695,29922,0,0,0,0,0.00,0.00,0.00,0.00
2017-05-11 02:30:00,2,29604,12,0.01,2,2,0,2,12799,45468,10866,26736,0,41,19,0,0.00,0.05,0.02,0.00
2017-05-11 02:40:00,2,29992,0,0.00,2,2,0,2,7721,47487,13196,31479,0,0,0,0,0.00,0.00,0.00,0.00
2017-05-11 02:50:00,1,39208,0,0.00,0,2,1,2,19332,50000,10850,41392,0,0,0,0,0.00,0.00,0.00,0.00
2017-05-11 03:00:00,0,24498,0,0.00,0,0,0,0,16249,45535,8137,21910,0,0,0,0,0.00,0.00,0.00,0.00
2017-05-11 03:10:00,0,32523,0,0.00,0,0,0,0,26507,47150,6128,30440,0,0,0,0,0.00,0.00,0.00,0.00
2017-05-11 03:20:00,0,31445,0,0.00,0,0,0,0,18531,44180,8035,32882,0,0,0,0,0.00,0.00,0.00,0.00
2017-05-11 03:30:00,2,34770,0,0.00,0,2,1,2,27232,44922,5672,33397,0,0,0,0,0.00,0.00,0.00,0.00
2017-05-11 03:40:00,2,18302,20,0.02,2,2,0,2,11399,29379,5141,18121,0,41,20,20,0.00,0.10,0.03,0.00
2017-05-11 03:50:00,2,33775,34,0.00,2,2,0,2,14362,49668,12946,39272,0,77,35,20,0.00,0.00,0.00,0.00
2017-05-11 04:00:00,2,30510,21,0.01,2,2,0,2,17810,45113,9488,30078,0,71,33,0,0.00,0.05,0.02,0.00
2017-05-11 04:10:00,2,37108,0,0.00,2,2,0,2,16290,50000,9548,39503,0,0,0,0,0.00,0.00,0.00,0.00
2017-05-11 04:20:00,2,42010,0,0.00,2,2,0,2,28458,50000,7161,41964,0,0,0,0,0.00,0.00,0.00,0.00
2017-05-11 04:30:00,2,34218,0,0.00,2,2,0,2,19359,50000,9507,32907,0,0,0,0,0.00,0.00,0.00,0.00
2017-05-11 04:40:00,2,35572,0,0.00,2,2,0,2,17574,50000,9077,38413,0,0,0,0,0.00,0.00,0.00,0.00
2017-05-11 04:50:00,2,42990,0,0.00,2,2,0,2,22589,50000,10130,49442,0,0,0,0,0.00,0.00,0.00,0.00
2017-05-11 05:00:00,2,44267,0,0.00,2,2,0,2,30494,50000,6818,45765,0,0,0,0,0.00,0.00,0.00,0.00
2017-05-11 05:10:00,2,43169,0,0.00,2,2,0,2,31579,50000,6183,43221,0,0,0,0,0.00,0.00,0.00,0.00
2017-05-11 05:20:00,2,35572,0,0.00,2,2,0,2,20961,48931,7671,36802,0,0,0,0,0.00,0.00,0.00,0.00
2017-05-11 05:30:00,2,30536,25,0.00,2,2,0,2,16491,49433,8727,30134,0,41,20,41,0.00,0.00,0.00,0.00
2017-05-11 05:40:00,2,38905,15,0.00,2,2,0,2,15849,50000,10954,40108,0,71,24,0,0.00,0.00,0.00,0.00
2017-05-11 05:50:00,2,40167,0,0.00,2,2,0,2,30893,49226,5922,40830,0,0,0,0,0.00,0.00,0.00,0.00
2017-05-11 06:00:00,2,43843,0,0.00,2,2,0,2,35792,49213,3881,44454,0,0,0,0,0.00,0.00,0.00,0.00
2017-05-11 06:10:00,2,43224,0,0.00,2,2,0,2,29230,50000,8166,49156,0,0,0,0,0.00,0.00,0.00,0.00
2017-05-11 06:20:00,1,44184,0,0.00,0,2,1,2,30991,50000,6997,47660,0,0,0,0,0.00,0.00,0.00,0.00
2017-05-11 06:30:00,1,40811,0,0.00,0,2,1,0,28387,50000,7384,42014,0,0,0,0,0.00,0.00,0.00,0.00
2017-05-11 06:40:00,2,42384,0,0.00,2,2,0,2,27645,50000,7100,43491,0,0,0,0,0.00,0.00,0.00,0.00
2017-05-11 06:50:00,2,44317,0,0.00,2,2,0,2,36122,50000,5036,43830,0,0,0,0,0.00,0.00,0.00,0.00
2017-05-11 07:00:00,2,43577,0,0.00,2,2,0,2,30945,50000,6517,47176,0,0,0,0,0.00,0.00,0.00,0.00
2017-05-11 07:10:00,2,38585,0,0.00,2,2,0,2,22135,50000,8972,38970,0,0,0,0,0.00,0.00,0.00,0.00
2017-05-11 07:20:00,2,42628,0,0.00,2,2,0,2,29487,50000,6517,44464,0,0,0,0,0.00,0.00,0.00,0.00
2017-05-11 07:30:00,2,42155,0,0.00,2,2,0,2,36066,50000,4402,41876,0,0,0,0,0.00,0.00,0.00,0.00
2017-05-11 07:40:00,2,41463,0,0.00,2,2,0,2,29280,50000,6926,42564,0,0,0,0,0.00,0.00,0.00,0.00
2017-05-11 07:50:00,2,46334,0,0.00,2,2,0,2,39740,50000,4533,49958,0,0,0,0,0.00,0.00,0.00,0.00
2017-05-11 08:00:00,2,42398,0,0.00,2,2,0,2,32913,50000,5007,41486,0,0,0,0,0.00,0.00,0.00,0.00
2017-05-11 08:10:00,2,42584,0,0.00,2,2,0,2,32090,50000,6443,42834,0,0,0,0,0.00,0.00,0.00,0.00
2017-05-11 08:20:00,2,44206,0,0.00,2,2,0,2,30810,50000,5748,44839,0,0,0,0,0.00,0.00,0.00,0.00
2017-05-11 08:30:00,2,47076,0,0.00,2,2,0,2,37747,50000,4136,49889,0,0,0,0,0.00,0.00,0.00,0.00
2017-05-11 08:40:00,2,49056,0,0.00,2,2,0,2,46914,50000,1298,50000,0,0,0,0,0.00,0.00,0.00,0.00
2017-05-11 08:50:00,2,42598,0,0.00,2,2,0,2,33584,50000,6713,42123,0,0,0,0,0.00,0.00,0.00,0.00
2017-05-11 09:00:00,2,44448,0,0.00,2,2,0,2,32988,50000,6069,45883,0,0,0,0,0.00,0.00,0.00,0.00
2017-05-11 09:10:00,2,46998,0,0.00,2,2,0,2,40136,50000,3356,48140,0,0,0,0,0.00,0.00,0.00,0.00
2017-05-11 09:20:00,2,47393,0,0.00,2,2,0,2,40286,50000,3518,50000,0,0,0,0,0.00,0.00,0.00,0.00
2017-05-11 09:30:00,2,44204,0,0.00,2,2,0,2,37406,50000,5099,43439,0,0,0,0,0.00,0.00,0.00,0.00
2017-05-11 09:40:00,2,43739,0,0.00,2,2,0,2,38091,50000,3975,43273,0,0,0,0,0.00,0.00,0.00,0.00
2017-05-11 09:50:00,2,46452,0,0.00,2,2,0,2,42329,50000,2547,46802,0,0,0,0,0.00,0.00,0.00,0.00
2017-05-11 10:00:00,2,43848,0,0.00,2,2,0,2,35612,50000,5360,41911,0,0,0,0,0.00,0.00,0.00,0.00
2017-05-11 10:10:00,2,46685,0,0.00,2,2,0,2,38702,50000,3597,47547,0,0,0,0,0.00,0.00,0.00,0.00
2017-05-11 10:20:00,2,45431,0,0.00,2,2,0,2,32876,50000,6042,49300,0,0,0,0,0.00,0.00,0.00,0.00
2017-05-11 10:30:00,2,40644,0,0.00,2,2,0,2,34404,50000,5256,39867,0,0,0,0,0.00,0.00,0.00,0.00
2017-05-11 10:40:00,2,47197,0,0.00,2,2,0,2,41835,50000,3225,49095,0,0,0,0,0.00,0.00,0.00,0.00
2017-05-11 10:50:00,2,39940,0,0.00,2,2,0,2,34360,50000,5112,37866,0,0,0,0,0.00,0.00,0.00,0.00
2017-05-11 11:00:00,2,45089,0,0.00,2,2,0,2,36554,50000,4785,45582,0,0,0,0,0.00,0.00,0.00,0.00
2017-05-11 11:10:00,2,46120,0,0.00,2,2,0,2,34027,50000,5099,48284,0,0,0,0,0.00,0.00,0.00,0.00
2017-05-11 11:20:00,2,46388,0,0.00,2,2,0,2,41349,50000,2694,46608,0,0,0,0,0.00,0.00,0.00,0.00
2017-05-11 11:30:00,2,43921,0,0.00,2,2,0,2,35105,50000,5731,44006,0,0,0,0,0.00,0.00,0.00,0.00
2017-05-11 11:40:00,2,47086,0,0.00,2,2,0,2,39143,50000,4096,50000,0,0,0,0,0.00,0.00,0.00,0.00
2017-05-11 11:50:00,2,46044,0,0.00,2,2,0,2,38360,50000,4059,47381,0,0,0,0,0.00,0.00,0.00,0.00
2017-05-11 12:00:00,2,48211,0,0.00,2,2,0,2,42431,50000,2758,49724,0,0,0,0,0.00,0.00,0.00,0.00
2017-05-11 12:10:00,2,48150,0,0.00,2,2,0,2,43619,50000,2291,49535,0,0,0,0,0.00,0.00,0.00,0.00
2017-05-11 12:20:00,2,47927,0,0.00,2,2,0,2,38613,50000,3317,49278,0,0,0,0,0.00,0.00,0.00,0.00
2017-05-11 12:30:00,2,50000,0,0.00,2,2,0,2,50000,50000,0,50000,0,0,0,0,0.00,0.00,0.00,0.00
2017-05-11 12:40:00,2,49350,0,0.00,2,2,0,2,46061,50000,1336,50000,0,0,0,0,0.00,0.00,0.00,0.00
2017-05-11 12:50:00,2,50000,0,0.00,2,2,0,2,50000,50000,0,50000,0,0,0,0,0.00,0.00,0.00,0.00
2017-05-11 13:00:00,2,49903,0,0.00,2,2,0,2,49033,50000,290,50000,0,0,0,0,0.00,0.00,0.00,0.00
2017-05-11 13:10:00,2,50000,0,0.00,2,2,0,2,50000,50000,0,50000,0,0,0,0,0.00,0.00,0.00,0.00
2017-05-11 13:20:00,2,50000,0,0.00,2,2,0,2,50000,50000,0,50000,0,0,0,0,0.00,0.00,0.00,0.00
2017-05-11 13:30:00,2,49888,0,0.00,2,2,0,2,49209,50000,247,50000,0,0,0,0,0.00,0.00,0.00,0.00
2017-05-11 13:40:00,2,50000,0,0.00,2,2,0,2,50000,50000,0,50000,0,0,0,0,0.00,0.00,0.00,0.00
2017-05-11 13:50:00,2,50000,0,0.00,2,2,0,2,50000,50000,0,50000,0,0,0,0,0.00,0.00,0.00,0.00
2017-05-11 14:00:00,2,49819,0,0.00,2,2,0,2,49064,50000,362,50000,0,0,0,0,0.00,0.00,0.00,0.00
2017-05-11 14:10:00,2,50000,0,0.00,2,2,0,2,50000,50000,0,50000,0,0,0,0,0.00,0.00,0.00,0.00
2017-05-11 14:20:00,2,50000,0,0.00,2,2,0,2,50000,50000,0,50000,0,0,0,0,0.00,0.00,0.00,0.00
2017-05-11 14:30:00,2,49966,0,0.00,2,2,0,2,49658,50000,103,50000,0,0,0,0,0.00,0.00,0.00,0.00
2017-05-11 14:40:00,2,50000,0,0.00,2,2,0,2,50000,50000,0,50000,0,0,0,0,0.00,0.00,0.00,0.00
2017-05-11 14:50:00,2,50000,0,0.00,2,2,0,2,50000,50000,0,50000,0,0,0,0,0.00,0.00,0.00,0.00
2017-05-11 15:00:00,2,49416,0,0.00,2,2,0,2,46571,50000,1190,50000,0,0,0,0,0.00,0.00,0.00,0.00
2017-05-11 15:10:00,2,50000,0,0.00,2,2,0,2,50000,50000,0,50000,0,0,0,0,0.00,0.00,0.00,0.00
2017-05-11 15:20:00,2,50000,0,0.00,2,2,0,2,50000,50000,0,50000,0,0,0,0,0.00,0.00,0.00,0.00
2017-05-11 15:30:00,2,49997,0,0.00,2,2,0,2,49983,50000,6,50000,0,0,0,0,0.00,0.00,0.00,0.00
2017-05-11 15:40:00,2,49069,0,0.00,2,2,0,2,45393,50000,1486,50000,0,0,0,0,0.00,0.00,0.00,0.00
2017-05-11 15:50:00,2,49992,0,0.00,2,2,0,2,49917,50000,25,50000,0,0,0,0,0.00,0.00,0.00,0.00
2017-05-11 16:00:00,2,49961,0,0.00,2,2,0,2,49612,50000,116,50000,0,0,0,0,0.00,0.00,0.00,0.00
2017-05-11 16:10:00,2,50000,0,0.00,2,2,0,2,50000,50000,0,50000,0,0,0,0,0.00,0.00,0.00,0.00
2017-05-11 16:20:00,2,49423,0,0.00,2,2,0,2,47090,50000,1153,50000,0,0,0,0,0.00,0.00,0.00,0.00
2017-05-11 16:30:00,2,50000,0,0.00,2,2,0,2,50000,50000,0,50000,0,0,0,0,0.00,0.00,0.00,0.00
2017-05-11 16:40:00,2,49891,0,0.00,2,2,0,2,48912,50000,326,50000,0,0,0,0,0.00,0.00,0.00,0.00
2017-05-11 16:50:00,2,50000,0,0.00,2,2,0,2,50000,50000,0,50000,0,0,0,0,0.00,0.00,0.00,0.00
2017-05-11 17:00:00,2,49877,0,0.00,2,2,0,2,48770,50000,369,50000,0,0,0,0,0.00,0.00,0.00,0.00
2017-05-11 17:10:00,2,49828,0,0.00,2,2,0,2,48879,50000,363,50000,0,0,0,0,0.00,0.00,0.00,0.00
2017-05-11 17:20:00,2,49820,0,0.00,2,2,0,2,48321,50000,501,50000,0,0,0,0,0.00,0.00,0.00,0.00
2017-05-11 17:30:00,2,50000,0,0.00,2,2,0,2,50000,50000,0,50000,0,0,0,0,0.00,0.00,0.00,0.00
2017-05-11 17:40:00,2,49907,0,0.00,2,2,0,2,49073,50000,278,50000,0,0,0,0,0.00,0.00,0.00,0.00
2017-05-11 17:50:00,2,49414,0,0.00,2,2,0,2,44972,50000,1491,50000,0,0,0,0,0.00,0.00,0.00,0.00
2017-05-11 18:00:00,2,50000,0,0.00,2,2,0,2,50000,50000,0,50000,0,0,0,0,0.00,0.00,0.00,0.00
2017-05-11 18:10:00,2,49388,0,0.00,2,2,0,2,46856,50000,1222,50000,0,0,0,0,0.00,0.00,0.00,0.00
2017-05-11 18:20:00,2,39551,0,0.00,2,2,0,2,22886,50000,9597,43384,0,0,0,0,0.00,0.00,0.00,0.00
2017-05-11 18:30:00,2,41580,0,0.00,2,2,0,2,36476,47222,2923,41570,0,0,0,0,0.00,0.00,0.00,0.00
2017-05-11 18:40:00,2,42008,0,0.00,2,2,0,2,34489,47612,3974,40950,0,0,0,0,0.00,0.00,0.00,0.00
2017-05-11 18:50:00,2,38634,0,0.00,2,2,0,2,33798,43957,3730,39376,0,0,0,0,0.00,0.00,0.00,0.00
2017-05-11 19:00:00,2,39941,0,0.00,2,2,0,2,31398,50000,5867,38737,0,0,0,0,0.00,0.00,0.00,0.00
2017-05-11 19:10:00,2,49080,0,0.00,2,2,0,2,46205,50000,1199,49715,0,0,0,0,0.00,0.00,0.00,0.00
2017-05-11 19:20:00,2,40391,0,0.00,2,2,0,2,32083,47538,4878,41012,0,0,0,0,0.00,0.00,0.00,0.00
2017-05-11 19:30:00,2,45369,0,0.00,2,2,0,2,36341,48492,4053,47596,0,0,0,0,0.00,0.00,0.00,0.00
2017-05-11 19:40:00,2,40453,0,0.00,2,2,0,2,30529,47999,6277,41103,0,0,0,0,0.00,0.00,0.00,0.00
2017-05-11 19:50:00,2,42954,0,0.00,2,2,0,2,36036,49578,4345,42428,0,0,0,0,0.00,0.00,0.00,0.00
2017-05-11 20:00:00,2,42210,0,0.00,2,2,0,2,30124,50000,7956,45536,0,0,0,0,0.00,0.00,0.00,0.00
2017-05-11 20:10:00,2,31242,21,0.01,2,2,0,2,11769,47725,10997,30686,0,71,33,0,0.00,0.05,0.02,0.00
2017-05-11 20:20:00,2,15356,71,0.24,2,2,0,2,3825,42724,13121,8922,71,71,0,71,0.00,0.75,0.22,0.17
2017-05-11 20:30:00,2,42352,54,0.01,2,2,0,2,19561,50000,9508,46431,0,71,28,71,0.00,0.05,0.02,0.00
2017-05-11 20:40:00,2,43709,0,0.00,2,2,0,2,38502,47618,3126,43556,0,0,0,0,0.00,0.00,0.00,0.00
2017-05-11 20:50:00,2,46208,0,0.00,2,2,0,2,35424,50000,5104,48779,0,0,0,0,0.00,0.00,0.00,0.00
2017-05-11 21:00:00,2,42850,0,0.00,2,2,0,2,28000,48636,6079,45316,0,0,0,0,0.00,0.00,0.00,0.00
2017-05-11 21:10:00,2,39109,7,0.01,2,2,0,2,14825,48918,9695,42715,0,71,21,0,0.00,0.05,0.02,0.00
2017-05-11 21:20:00,2,30896,50,0.03,2,2,0,2,11995,43757,11088,35708,0,71,33,71,0.00,0.30,0.09,0.00
2017-05-11 21:30:00,2,28653,57,0.03,2,2,0,2,14231,50000,10450,23883,0,71,28,71,0.00,0.20,0.06,0.00
2017-05-11 21:40:00,2,28233,43,0.03,2,2,0,2,13696,50000,10636,26323,0,71,35,71,0.00,0.30,0.09,0.00
2017-05-11 21:50:00,2,39640,0,0.00,2,2,0,2,24059,50000,8440,41694,0,0,0,0,0.00,0.00,0.00,0.00
2017-05-11 22:00:00,2,20057,68,0.07,2,2,0,2,9347,34917,7138,20714,41,71,9,71,0.00,0.40,0.12,0.00
2017-05-11 22:10:00,2,30458,40,0.06,2,2,0,2,6285,46730,13395,34440,0,77,34,56,0.00,0.55,0.16,0.00
2017-05-11 22:20:00,2,22543,43,0.03,2,2,0,2,8129,37036,9921,21864,0,71,35,71,0.00,0.10,0.04,0.00
2017-05-11 22:30:00,2,31576,21,0.08,2,2,0,2,6075,43598,10648,35230,0,71,33,0,0.00,0.80,0.24,0.00
2017-05-11 22:40:00,2,35790,0,0.00,2,2,0,2,22534,50000,10302,33516,0,0,0,0,0.00,0.00,0.00,0.00
2017-05-11 22:50:00,2,26810,57,0.10,2,2,0,2,2921,44449,12580,32438,0,71,28,71,0.00,0.80,0.24,0.00
2017-05-11 23:00:00,2,16636,57,0.07,2,2,0,2,1783,32137,9397,15226,0,71,28,71,0.00,0.55,0.16,0.00
2017-05-11 23:10:00,2,8609,71,0.31,2,2,0,2,2735,17355,4852,8610,71,71,0,71,0.05,0.70,0.22,0.23
2017-05-11 23:20:00,2,7229,71,0.36,2,2,0,2,3313,15210,3919,6472,71,71,0,71,0.00,0.75,0.25,0.33
2017-05-11 23:30:00,2,17644,71,0.15,2,2,0,2,3197,34124,8992,18583,71,71,0,71,0.00,0.85,0.26,0.00
2017-05-11 23:40:00,2,27272,21,0.02,2,2,0,2,16714,34626,4799,27158,0,71,33,0,0.00,0.20,0.06,0.00
2017-05-11 23:50:00,2,36036,0,0.00,2,2,0,2,17478,50000,9389,35012,0,0,0,0,0.00,0.00,0.00,0.00
